Location: Mahannah Oil Field
(37.4664°N, 96.6003°W)
Time: 21:49:24
(UTC+00:00)

AIST 1 - Visible Passes

Search period start: 22 January 2022 00:00
Search period end: 01 February 2022 00:00
Orbit: 591 x 616 km, 82.4° (Epoch: 22 January)

Date Brightness Start Highest point End Pass type
(mag) Time Alt. Az. Time Alt. Az. Time Alt. Az.
22 Jan ? 00:38:38 10° SW 00:42:09 23° WNW 00:45:41 10° NNW visible
23 Jan ? 00:52:26 10° WSW 00:54:49 14° WNW 00:57:12 10° NW visible
28 Jan ? 00:17:42 10° W 00:19:46 13° WNW 00:21:50 10° NW visible
